This is the latest recevied weather packets stored in our database for station/object KQ7A. If no packets are shown the sender has not sent any weather packets the latest 10 day(s).
| Time | Temp. | Humidity | Pressure | Rain* | Wind** | Luminosity | Snow |
|---|---|---|---|---|---|---|---|
| 1788144360 | 68° F | 43% | 762.6 mmHg | 0 in | - | 0 W/m² | - |
| 1788144058 | 70° F | 45% | 762.6 mmHg | 0 in | - | 0 W/m² | - |
| 1788143751 | 70° F | 44% | 762.4 mmHg | 0 in | - | 1 W/m² | - |
| 1788143450 | 72° F | 41% | 762.4 mmHg | 0 in | - | 3 W/m² | - |
| 1788143145 | 72° F | 42% | 762.7 mmHg | 0 in | - | 5 W/m² | - |
| 1788142841 | 74° F | 39% | 762.3 mmHg | 0 in | - | 8 W/m² | - |
| 1788142539 | 73° F | 36% | 762.4 mmHg | 0 in | - | 11 W/m² | - |
| 1788142236 | 75° F | 35% | 762.2 mmHg | 0 in | - | 13 W/m² | - |
| 1788141931 | 76° F | 34% | 762.2 mmHg | 0 in | - | 16 W/m² | - |
| 1788141626 | 76° F | 34% | 762.3 mmHg | 0 in | - | 20 W/m² | - |
| 1788141321 | 76° F | 34% | 762.1 mmHg | 0 in | - | 23 W/m² | - |
| 1788141016 | 75° F | 33% | 762.3 mmHg | 0 in | - | 25 W/m² | - |
| 1788140710 | 76° F | 35% | 762.2 mmHg | 0 in | - | 28 W/m² | - |
| 1788140407 | 76° F | 35% | 762.3 mmHg | 0 in | - | 29 W/m² | - |
| 1788140102 | 76° F | 34% | 762.1 mmHg | 0 in | - | 32 W/m² | - |
| 1788139795 | 76° F | 35% | 762.4 mmHg | 0 in | - | 35 W/m² | - |
| 1788139490 | 75° F | 35% | 762.1 mmHg | 0 in | - | 36 W/m² | - |
| 1788139184 | 75° F | 36% | 762.3 mmHg | 0 in | - | 40 W/m² | - |
| 1788138879 | 75° F | 36% | 762.2 mmHg | 0 in | - | 51 W/m² | - |
| 1788138576 | 76° F | 37% | 762.3 mmHg | 0 in | - | 55 W/m² | - |
| 1788138276 | 76° F | 37% | 762.3 mmHg | 0 in | - | 54 W/m² | - |
| 1788137971 | 77° F | 35% | 762.2 mmHg | 0 in | - | 57 W/m² | - |
| 1788137667 | 79° F | 33% | 762.3 mmHg | 0 in | - | 62 W/m² | - |
| 1788137366 | 80° F | 32% | 762.3 mmHg | 0 in | - | 97 W/m² | - |
| 1788137063 | 81° F | 30% | 762.1 mmHg | 0 in | - | 203 W/m² | - |
* Rain latest hour (hover to see other rain measurements)
** Current wind speed in m/s (hover to see current wind gust speed)